星链-1320 (STARLINK-1320 )

导读

STARLINK-1320是美国SpaceX公司星链(Starlink)计划中的卫星,于2020年4月22日发射升空。作为星链星座组网的组成部分,它运行在近地轨道,主要为全球范围内提供高速互联网接入服务,尤其服务偏远地区与网络基础设施薄弱区域,推动全球网络覆盖,也标志着美国低轨卫星互联网建设的持续推进。

基本信息
目录编号:
45572
目录名称:
STARLINK-1320
国际标识:
2020-025AT
轨道中心:
EARTH
卫星名称:
星链-1320
卫星全名:
星链-1320 (STARLINK-1320 )
卫星状态:
已陨落 最后检测时间 2026-08-02
发射日期:
2020-04-22 UTC
国别 :
美国 (US)
星等 :
--
该卫星已列入 空间交会检测服务 Space Conjunction Data Service (SCDS) ,当前飞行风险评估等级: 无高风险
轨道信息
数据来源 国际轨道数据
星历时间: 2026-08-02T03:57:21+0800
轨道信息已过期40天
半长轴: 6536.648km
偏心率: 0.0008749
轨道倾角: 53.022°
近地点辐角 308.529°
升交点赤经 331.089°
平近点角 51.498°
近地点: 152.792km
远地点: 164.23km
周期: 87.658分钟
每日圈数: 16.427449
详细信息
固有亮度:
5
最大亮度:
2.5
卫星平台:
Starlink V1.0
覆盖范围:
全球
运营商:
太空探索技术公司
运营商所在国:
美国
制造商(研发单位):
太空探索技术公司
制造商所在国:
美国
使用方式:
暂无
卫星简介
星链(Starlink)计划是由太空探索技术公司(SpaceX)提出的一个巨型低轨卫星互联网星座项目,计划在2019年至2024年间在太空搭建由约1.2万颗卫星组成的“星链”网络,其中1584颗将部署在地球上空550千米处的近地轨道,并从2020年开始工作。该卫星仍在工作。
与全量物体交会距离演化趋势
与全量物体交会风险概率演化趋势